Impacts METAR Board
IDs:

KLAX - Los Angeles Intl, CA, US

Updated at: 1200 UTC 16 Sep 2019
Potential Impact None Slight Moderate High
Time 16/00Z 16/01Z 16/02Z 16/03Z 16/04Z 16/05Z 16/06Z 16/07Z 16/08Z 16/09Z 16/10Z 16/11Z 16/12Z
Temp73 71 70 70 70 69 69 69 68 68 68 68 68
Dewpt63 63 63 64 64 63 64 63 63 63 62 63 63
Altim29.85 29.85 29.85 29.85 29.86 29.87 29.87 29.89 29.89 29.90 29.89 29.89 29.89
VIS9 10 9 9 6 6 5 5 10 9 7 6 5
CIG300 300 300 250 8 -- 250 9 -- -- -- 250 9
CoverBKNBKNBKNBKNBKNSCTBKNBKNSCTSCTSCTBKNOVC
FltCatVFRVFRVFRVFRIFRVFRMVFRIFRVFRVFRVFRVFRIFR
WX--------HZHZHZHZ------HZBR
WDir260240260260280240250240250240000
WSpd8 7 7 7 4 6 5 5 4 3 0 0 0
WGst-- -- -- -- -- -- -- -- -- -- -- -- --
Raw hourly METARs
KLAX 152353Z 26008KT 9SM FEW008 FEW220 BKN300 23/17 A2985 RMK AO2 SLP106 T02280172 10272 20222 56010
KLAX 160053Z 24007KT 10SM FEW007 FEW220 BKN300 22/17 A2985 RMK AO2 SLP107 T02170172
KLAX 160153Z 26007KT 9SM FEW008 FEW220 BKN300 21/17 A2985 RMK AO2 SLP107 T02110172
KLAX 160253Z 26007KT 9SM SCT008 BKN250 21/18 A2985 RMK AO2 SLP107 T02110178 51001
KLAX 160353Z 28004KT 6SM HZ BKN008 21/18 A2986 RMK AO2 SLP110 T02110178
KLAX 160453Z 24006KT 6SM HZ FEW007 SCT250 21/17 A2987 RMK AO2 SLP111 T02060172
KLAX 160553Z 25005KT 5SM HZ SCT007 BKN250 21/18 A2987 RMK AO2 SLP112 T02060178 10228 20200 51006
KLAX 160653Z 24005KT 5SM HZ FEW007 BKN009 BKN250 21/17 A2989 RMK AO2 SLP117 T02060172
KLAX 160753Z 25004KT 10SM FEW007 FEW009 SCT250 20/17 A2989 RMK AO2 SLP120 T02000172 402720200
KLAX 160853Z 24003KT 9SM FEW007 FEW009 SCT250 20/17 A2990 RMK AO2 SLP122 T02000172 51009
KLAX 160953Z 00000KT 7SM FEW007 FEW012 SCT250 20/17 A2989 RMK AO2 SLP119 T02000167
KLAX 161053Z 00000KT 6SM HZ FEW007 SCT012 BKN250 20/17 A2989 RMK AO2 SLP119 T02000172
KLAX 161153Z 00000KT 5SM BR FEW007 BKN009 OVC250 20/17 A2989 RMK AO2 SLP120 T02000172 10206 20194 55002



Page loaded:  12:38 UTC  |   05:38 AM Pacific  |   06:38 AM Mountain  |   07:38 AM Central  |   08:38 AM Eastern

 

ADVISORIES

FORECASTS

FORECASTS

OBSERVATIONS

USER TOOLS

ABOUT US